YAOGAN-10

Last updated on Sat Oct 25 2025 00:02:32 GMT+0000 (Coordinated Universal Time)

1 36834U 10038A 25297.71327384 .00001080 00000+0 13474-3 0 9996 2 36834 97.9193 317.8928 0001527 95.2593 11.9649 14.84452645822263
UTC large
Height (km)
Speed (km/s)
/
Latitude / Longitude
Inclination (degrees)
Orbital Period (minutes)
Azimuth
Elevation
Range (km)
Doppler Factor

Next 0 passes for location: London (51.5072 / 0.1276)

Sorry there are no passes over London.